Location: ?????????
(55.6553°N, 38.9075°E)
Time: 11:15:04
(UTC+00:00)

Lacrosse 4 Rocket - Pass Details

Date: 18 October 2019
Orbit: 544 x 615 km, 68.0° (Epoch: 14 November)

Event Time Altitude Azimuth Distance (km) Brightness Sun altitude
Exits shadow 02:05:42 16° 320° (NW) 1,465 3.2 -16.8°
Maximum altitude 02:06:53 18° 342° (NNW) 1,377 3.2 -16.6°
Drops below altitude 10° 02:09:47 10° 27° (NNE) 1,827 4.4 -16.2°
Sets 02:12:33 0° 46° (NE) 2,720 5.8 -15.8°
